Location: Erdweis
(48.5167°N, 15.3500°E)
Time: 17:14:49
(UTC+00:00)

Cosmos 2150 Rocket - Pass Details

Date: 18 September 2020
Orbit: 749 x 808 km, 74.0° (Epoch: 29 October)

Event Time Altitude Azimuth Distance (km) Brightness Sun altitude
Rises 18:46:07 0° 190° (S) 3,259 7.1 -17.2°
Reaches altitude 10° 18:48:30 10° 187° (S) 2,344 6.3 -17.6°
Maximum altitude 18:53:46 63° 108° (ESE) 892 4.0 -18.4°
Drops below altitude 10° 18:59:08 10° 29° (NNE) 2,392 6.5 -19.2°
Sets 19:01:35 0° 26° (NNE) 3,332 7.3 -19.5°
